Weather History for Anniston, AL

Change the Weather History Date:

Friday, January 11, 2013

  Actual Average Record
Temperature  
Mean Temperature 67 °F 43 °F  
Max Temperature 71 °F 53 °F 80 °F (1949)
Min Temperature 63 °F 33 °F 1 °F (1982)
Degree Days  
Heating Degree Days 0    
Month to date heating degree days 185  
Since 1 July heating degree days 1229  
Cooling Degree Days 2    
Growing Degree Days 17 (Base 50)    
Moisture  
Dew Point 62 °F    
Average Humidity 87    
Maximum Humidity 100    
Minimum Humidity 73    
Precipitation  
Precipitation 0.26 in 0.15 in 3.11 in (1905)
Month to date precipitation 1.64 1.43  
Year to date precipitation 1.64 1.43  
Sea Level Pressure  
Sea Level Pressure 30.12 in    
Wind  
Wind Speed 4 mph (SSW)    
Max Wind Speed 20 mph    
Max Gust Speed 30 mph    
Visibility 7 miles    
Events Rain    
T = Trace of Precipitation, MM = Missing Value Source: NWS Daily Summary

Daily Weather History Graph

Daily Weather History Graph

Search for Another Location

Airport:

Trip Planner

Search our weather history database for the weather conditions in past years. The results will help you decide how hot, cold, wet, or windy it might be!

Date:

Astronomy

Jan. 11, 2013 Rise Set
Actual Time 6:48 AM CST 4:54 PM CST
Civil Twilight 6:21 AM CST 5:22 PM CST
Nautical Twilight 5:50 AM CST 5:52 PM CST
Astronomical Twilight 5:20 AM CST 6:22 PM CST
Moon 6:22 AM CST (1/11) 5:09 PM CST (1/11)
Length of Visible Light 11h 00m
Length of Day
10h 06m
Waning Crescent, 0% of the Moon is Illuminated
Jan 11
Waning Crescent
Jan 11
New
Jan 18
First Quarter
Jan 26
Full
Feb 3
Last Quarter

Hourly Weather History & Observations

Time (CST) Temp. Dew Point Humidity Pressure Visibility Wind Dir Wind Speed Gust Speed Precip Events Conditions
12:01 AM 66.2 °F 59.0 °F 78% 30.11 in 10.0 mi SSE 8.1 mph 28.8 mph N/A   Scattered Clouds
12:18 AM 66.2 °F 59.0 °F 78% 30.11 in 10.0 mi SSE 19.6 mph 27.6 mph N/A   Mostly Cloudy
12:53 AM 68.0 °F 59.0 °F 73% 30.12 in 10.0 mi Variable 3.5 mph - N/A   Mostly Cloudy
1:39 AM 68.0 °F 59.0 °F 73% 30.13 in 10.0 mi South 9.2 mph - N/A   Mostly Cloudy
1:53 AM 68.0 °F 59.0 °F 73% 30.11 in 10.0 mi South 10.4 mph 19.6 mph N/A   Mostly Cloudy
2:02 AM 66.2 °F 59.0 °F 78% 30.12 in 10.0 mi SSE 12.7 mph 19.6 mph N/A   Mostly Cloudy
2:34 AM 68.0 °F 59.0 °F 73% 30.12 in 10.0 mi South 5.8 mph 21.9 mph N/A   Mostly Cloudy
2:53 AM 66.9 °F 59.0 °F 76% 30.12 in 10.0 mi SSW 9.2 mph 18.4 mph N/A   Mostly Cloudy
3:53 AM 66.9 °F 59.0 °F 76% 30.11 in 10.0 mi South 6.9 mph - N/A   Overcast
4:53 AM 66.0 °F 60.1 °F 81% 30.10 in 10.0 mi South 3.5 mph - N/A   Mostly Cloudy
6:53 AM 64.0 °F 61.0 °F 90% 30.15 in 9.0 mi WSW 3.5 mph - N/A   Overcast
7:42 AM 64.4 °F 60.8 °F 88% 30.17 in 2.0 mi SW 3.5 mph - 0.02 in Rain Light Rain
7:50 AM 64.4 °F 60.8 °F 88% 30.17 in 1.8 mi Calm Calm - 0.02 in Rain Light Rain
7:53 AM 64.0 °F 61.0 °F 90% 30.16 in 4.0 mi Calm Calm - 0.02 in Rain Light Rain
8:53 AM 64.9 °F 62.1 °F 90% 30.17 in 10.0 mi Calm Calm - 0.01 in   Overcast
9:53 AM 68.0 °F 62.1 °F 81% 30.15 in 10.0 mi Calm Calm - N/A   Mostly Cloudy
10:53 AM 69.1 °F 61.0 °F 75% 30.14 in 10.0 mi SSW 10.4 mph - N/A   Overcast
11:37 AM 66.2 °F 62.6 °F 88% 30.14 in 2.0 mi SSW 8.1 mph - 0.01 in Rain Light Rain
11:50 AM 66.2 °F 62.6 °F 88% 30.13 in 3.0 mi SSW 4.6 mph - 0.02 in Rain Light Rain
11:53 AM 66.0 °F 63.0 °F 90% 30.12 in 4.0 mi SSW 4.6 mph - 0.02 in Rain Light Rain
12:25 PM 64.4 °F 62.6 °F 94% 30.12 in 2.0 mi Calm Calm - 0.03 in Rain Light Rain
12:30 PM 64.4 °F 62.6 °F 94% 30.12 in 3.0 mi Calm Calm - 0.03 in Rain Light Rain
12:53 PM 66.0 °F 63.0 °F 90% 30.10 in 9.0 mi Variable 3.5 mph - 0.04 in   Overcast
1:07 PM 66.2 °F 62.6 °F 88% 30.10 in 10.0 mi Calm Calm - N/A   Overcast
1:44 PM 66.2 °F 62.6 °F 88% 30.11 in 1.8 mi SSW 4.6 mph - 0.01 in Rain Light Rain
1:59 PM 66.2 °F 62.6 °F 88% 30.10 in 2.0 mi Variable 3.5 mph - 0.00 in Rain Light Rain
2:12 PM 66.2 °F 62.6 °F 88% 30.10 in 3.0 mi SW 4.6 mph - 0.03 in Rain Light Rain
2:24 PM 64.4 °F 64.4 °F 100% 30.11 in 2.5 mi West 5.8 mph - 0.04 in Rain Light Rain
2:27 PM 64.4 °F 64.4 °F 100% 30.11 in 1.8 mi West 4.6 mph - 0.05 in Rain Light Rain
2:41 PM 64.4 °F 64.4 °F 100% 30.11 in 1.0 mi West 4.6 mph - 0.10 in Rain Rain
2:49 PM 64.4 °F 64.4 °F 100% 30.11 in 1.5 mi West 4.6 mph - 0.12 in Rain Light Rain
2:53 PM 64.9 °F 64.0 °F 97% 30.10 in 3.0 mi Calm Calm - 0.12 in Rain Light Rain
3:53 PM 66.0 °F 64.0 °F 93% 30.09 in 8.0 mi Calm Calm - 0.00 in   Overcast
4:53 PM 64.9 °F 64.0 °F 97% 30.09 in 6.0 mi NE 3.5 mph - N/A   Overcast
5:53 PM 64.9 °F 64.0 °F 97% 30.09 in 9.0 mi NE 4.6 mph - 0.00 in   Overcast
6:53 PM 64.9 °F 63.0 °F 93% 30.10 in 9.0 mi NE 3.5 mph - N/A   Overcast
7:53 PM 70.0 °F 63.0 °F 78% 30.10 in 10.0 mi SSW 4.6 mph - N/A   Overcast
8:53 PM 69.1 °F 62.1 °F 78% 30.11 in 10.0 mi SW 8.1 mph - N/A   Overcast
9:53 PM 69.1 °F 63.0 °F 81% 30.11 in 10.0 mi SSW 5.8 mph - N/A   Overcast
10:53 PM 68.0 °F 63.0 °F 84% 30.10 in 10.0 mi SSW 6.9 mph - N/A   Overcast
11:53 PM 68.0 °F 63.0 °F 84% 30.10 in 10.0 mi Variable 3.5 mph - 0.01 in Rain Light Rain